Location: Centerville
(32.8776°N, 96.6203°W)
Time: 00:08:56
(UTC+00:00)

Cosmos 2123 Rocket - Pass Details

Date: 17 June 2021
Orbit: 961 x 992 km, 82.9° (Epoch: 01 August)

Event Time Altitude Azimuth Distance (km) Brightness Sun altitude
Exits shadow 04:32:41 57° 210° (SSW) 1,150 4.1 -27.4°
Maximum altitude 04:34:00 75° 276° (W) 1,019 4.0 -27.6°
Drops below altitude 10° 04:40:20 10° 2° (N) 2,755 7.1 -28.2°
Sets 04:42:52 0° 4° (N) 3,709 7.9 -28.5°
